DW7525 Weather Reports


time (UTC)temp
C
wind
direction
speed
KPH
gust
KPH
rain 1hr
cm
rain 24hr
cm
rain mn
cm
humidity
%
barometer
mb
20260906221331 29 158 4.8 20.9 0.00 0.00 0.00 34 1016.8
20260906220824 29 91 9.7 35.4 0.00 0.00 0.00 34 1016.9
20260906220359 29 117 11.3 35.4 0.00 0.00 0.00 35 1016.9
20260906215912 30 211 8.0 16.1 0.00 0.00 0.00 34 1016.8
20260906215829 30 211 8.0 16.1 0.00 0.00 0.00 34 1016.8
20260906215323 29 98 11.3 17.7 0.00 0.00 0.00 34 1017.0
20260906214858 29 175 9.7 22.5 0.00 0.00 0.00 35 1016.9
20260906214351 28 71 9.7 22.5 0.00 0.00 0.00 38 1017.0
20260906213906 28 76 9.7 19.3 0.00 0.00 0.00 37 1017.2
20260906213336 28 89 11.3 20.9 0.00 0.00 0.00 37 1017.4
20260906212911 28 123 9.7 20.9 0.00 0.00 0.00 38 1017.4
20260906212405 28 109 9.7 19.3 0.00 0.00 0.00 38 1017.5
20260906211916 28 117 12.9 20.9 0.00 0.00 0.00 38 1017.6
20260906211834 28 117 12.9 20.9 0.00 0.00 0.00 38 1017.6
20260906211348 28 83 12.9 20.9 0.00 0.00 0.00 37 1017.6
20260906210841 28 96 12.9 20.9 0.00 0.00 0.00 37 1017.7
20260906210357 28 99 8.0 20.9 0.00 0.00 0.00 36 1017.6
20260906205911 28 98 9.7 19.3 0.00 0.00 0.00 36 1017.6
20260906205324 28 70 11.3 20.9 0.00 0.00 0.00 36 1017.8
20260906204836 28 121 6.4 22.5 0.00 0.00 0.00 35 1017.9
20260906204354 28 39 8.0 22.5 0.00 0.00 0.00 35 1018.0
20260906203827 28 96 4.8 12.9 0.00 0.00 0.00 35 1018.2
20260906203323 28 109 6.4 19.3 0.00 0.00 0.00 34 1018.2
20260906202857 28 84 8.0 20.9 0.00 0.00 0.00 34 1018.2
20260906202427 28 110 9.7 20.9 0.00 0.00 0.00 34 1018.4
20260906201859 29 126 1.6 16.1 0.00 0.00 0.00 33 1018.5
20260906201411 29 70 4.8 17.7 0.00 0.00 0.00 34 1018.6
20260906201329 29 70 4.8 17.7 0.00 0.00 0.00 34 1018.6
20260906200842 30 140 3.2 9.7 0.00 0.00 0.00 33 1018.6
20260906200335 30 91 4.8 22.5 0.00 0.00 0.00 32 1018.6
20260906195934 31 128 12.9 22.5 0.00 0.00 0.00 31 1018.7
20260906195404 31 163 4.8 17.7 0.00 0.00 0.00 31 1018.7
20260906194917 31 174 8.0 22.5 0.00 0.00 0.00 32 1018.7
20260906194835 31 174 8.0 22.5 0.00 0.00 0.00 32 1018.7
20260906194348 30 69 9.7 22.5 0.00 0.00 0.00 33 1018.7
20260906193922 30 88 4.8 19.3 0.00 0.00 0.00 33 1018.8
20260906193353 30 162 8.0 19.3 0.00 0.00 0.00 33 1018.9
20260906192847 30 175 8.0 22.5 0.00 0.00 0.00 31 1018.9
20260906192318 30 122 6.4 22.5 0.00 0.00 0.00 31 1018.9
20260906191857 30 13 6.4 17.7 0.00 0.00 0.00 31 1019.1
20260906191430 31 74 4.8 16.1 0.00 0.00 0.00 31 1019.2
20260906191348 31 74 4.8 16.1 0.00 0.00 0.00 31 1019.2
20260906190843 31 96 6.4 16.1 0.00 0.00 0.00 30 1019.3
20260906190318 31 96 1.6 16.1 0.00 0.00 0.00 31 1019.3
20260906185915 30 15 4.8 14.5 0.00 0.00 0.00 32 1019.5
20260906185348 30 46 3.2 16.1 0.00 0.00 0.00 32 1019.5
20260906184821 30 54 6.4 16.1 0.00 0.00 0.00 34 1019.6
20260906184411 30 36 4.8 14.5 0.00 0.00 0.00 34 1019.7
20260906183844 30 98 6.4 12.9 0.00 0.00 0.00 34 1019.9
20260906183323 30 19 4.8 11.3 0.00 0.00 0.00 33 1020.0
20260906182852 30 130 4.8 8.0 0.00 0.00 0.00 33 1020.2
20260906182329 30 84 3.2 9.7 0.00 0.00 0.00 35 1020.2
20260906181822 29 44 3.2 12.9 0.00 0.00 0.00 34 1020.4
20260906181355 29 12 3.2 12.9 0.00 0.00 0.00 33 1020.5
20260906180831 28 9 4.8 11.3 0.00 0.00 0.00 35 1020.6
20260906180408 28 9 4.8 11.3 0.00 0.00 0.00 34 1020.7
20260906175824 29 9 3.2 11.3 0.00 0.00 0.00 38 1020.8
20260906175440 28 10 6.4 11.3 0.00 0.00 0.00 35 1021.0
20260906175357 28 10 6.4 11.3 0.00 0.00 0.00 35 1021.0
20260906174912 28 9 3.2 11.3 0.00 0.00 0.00 37 1021.1
20260906174830 28 9 3.2 11.3 0.00 0.00 0.00 37 1021.1
20260906174404 28 9 4.8 11.3 0.00 0.00 0.00 39 1021.1
20260906174321 28 9 4.8 11.3 0.00 0.00 0.00 39 1021.1
20260906173835 28 96 3.2 8.0 0.00 0.00 0.00 36 1021.2
20260906173329 28 11 4.8 8.0 0.00 0.00 0.00 37 1021.4
20260906172904 28 98 3.2 9.7 0.00 0.00 0.00 36 1021.4
20260906172417 28 90 3.2 8.0 0.00 0.00 0.00 36 1021.5
20260906171929 28 76 1.6 8.0 0.00 0.00 0.00 37 1021.5
20260906171417 28 66 4.8 8.0 0.00 0.00 0.00 37 1021.7
20260906170849 27 100 1.6 8.0 0.00 0.00 0.00 39 1021.7
20260906170343 27 143 1.6 8.0 0.00 0.00 0.00 39 1021.8
20260906165835 27 100 1.6 6.4 0.00 0.00 0.00 37 1021.8
20260906165333 26 9 0.0 4.8 0.00 0.00 0.00 40 1021.8
20260906164827 26 9 3.2 4.8 0.00 0.00 0.00 39 1021.9
20260906164342 26 41 1.6 6.4 0.00 0.00 0.00 41 1021.9
20260906163835 26 82 0.0 6.4 0.00 0.00 0.00 39 1022.0
20260906163350 26 12 1.6 6.4 0.00 0.00 0.00 43 1022.0
20260906162904 26 13 0.0 9.7 0.00 0.00 0.00 43 1022.1
20260906162335 25 98 1.6 9.7 0.00 0.00 0.00 43 1022.1
20260906161911 25 84 0.0 8.0 0.00 0.00 0.00 43 1022.1
20260906161323 25 360 0.0 6.4 0.00 0.00 0.00 43 1022.2
20260906160936 25 360 1.6 4.8 0.00 0.00 0.00 44 1022.2
20260906160833 25 360 1.6 4.8 0.00 0.00 0.00 44 1022.2
20260906160407 25 340 1.6 6.4 0.00 0.00 0.00 43 1022.2
20260906155901 25 340 4.8 6.4 0.00 0.00 0.00 45 1022.1
20260906155353 24 5 0.0 4.8 0.00 0.00 0.00 47 1022.0
20260906154841 24 9 0.0 8.0 0.00 0.00 0.00 46 1022.0
20260906154319 23 13 1.6 4.8 0.00 0.00 0.00 47 1021.9
20260906153832 23 13 1.6 4.8 0.00 0.00 0.00 46 1022.0
20260906153326 23 5 1.6 4.8 0.00 0.00 0.00 46 1022.0
20260906152937 23 12 1.6 4.8 0.00 0.00 0.00 48 1022.0
20260906152855 23 12 1.6 4.8 0.00 0.00 0.00 48 1022.0
20260906152325 23 13 1.6 6.4 0.00 0.00 0.00 50 1022.0
20260906151843 22 5 3.2 6.4 0.00 0.00 0.00 52 1021.9
20260906151418 22 5 3.2 6.4 0.00 0.00 0.00 50 1021.9
20260906150933 22 9 0.0 4.8 0.00 0.00 0.00 52 1022.0
20260906150851 22 9 0.0 4.8 0.00 0.00 0.00 52 1022.0
20260906150357 22 9 0.0 4.8 0.00 0.00 0.00 55 1022.1
20260906145849 21 5 1.6 4.8 0.00 0.00 0.00 55 1022.1
20260906145401 21 5 0.0 3.2 0.00 0.00 0.00 57 1022.1
20260906144913 21 5 0.0 3.2 0.00 0.00 0.00 60 1022.0
20260906144346 21 5 0.0 3.2 0.00 0.00 0.00 60 1022.0
20260906143840 21 5 0.0 3.2 0.00 0.00 0.00 60 1022.0
20260906143413 21 5 0.0 1.6 0.00 0.00 0.00 61 1022.1
20260906143330 21 5 0.0 1.6 0.00 0.00 0.00 61 1022.1
20260906142905 20 5 0.0 3.2 0.00 0.00 0.00 62 1022.0
20260906142823 20 5 0.0 3.2 0.00 0.00 0.00 62 1022.0
20260906142335 20 5 0.0 3.2 0.00 0.00 0.00 62 1022.0
20260906141850 20 23 1.6 4.8 0.00 0.00 0.00 61 1022.1
20260906141405 20 15 3.2 4.8 0.00 0.00 0.00 59 1022.2
20260906141323 20 15 3.2 4.8 0.00 0.00 0.00 59 1022.2
20260906140916 20 18 1.6 3.2 0.00 0.00 0.00 59 1022.2
20260906140834 20 18 1.6 3.2 0.00 0.00 0.00 59 1022.2
20260906140333 20 16 0.0 3.2 0.00 0.00 0.00 59 1022.2
20260906135847 20 15 0.0 3.2 0.00 0.00 0.00 59 1022.0
20260906135340 20 13 0.0 3.2 0.00 0.00 0.00 60 1022.0
20260906134908 19 11 0.0 0.0 0.00 0.00 0.00 62 1021.9
20260906134403 18 36 0.0 0.0 0.00 0.00 0.00 63 1021.8
20260906133855 17 17 0.0 0.0 0.00 0.00 0.00 64 1021.8
20260906133348 17 21 0.0 0.0 0.00 0.00 0.00 65 1021.7
20260906132901 17 19 0.0 0.0 0.00 0.00 0.00 67 1021.6
20260906132335 16 236 0.0 0.0 0.00 0.00 0.00 68 1021.6
20260906131829 16 33 0.0 0.0 0.00 0.00 0.00 69 1021.5
20260906131323 15 234 0.0 0.0 0.00 0.00 0.00 70 1021.5
20260906130818 15 235 0.0 1.6 0.00 0.00 0.00 71 1021.6
20260906130353 15 235 0.0 1.6 0.00 0.00 0.00 70 1021.5
20260906125826 14 221 0.0 0.0 0.00 0.00 0.00 69 1021.6
20260906125341 14 195 0.0 0.0 0.00 0.00 0.00 68 1021.6
20260906124833 14 194 0.0 0.0 0.00 0.00 0.00 68 1021.5
20260906124331 15 202 0.0 0.0 0.00 0.00 0.00 67 1021.4
20260906123824 15 216 0.0 0.0 0.00 0.00 0.00 67 1021.4
20260906123419 15 216 0.0 0.0 0.00 0.00 0.00 67 1021.4
20260906122931 15 217 0.0 0.0 0.00 0.00 0.00 66 1021.3
20260906122345 15 218 0.0 0.0 0.00 0.00 0.00 66 1021.3
20260906121919 15 19 0.0 0.0 0.00 0.00 0.00 66 1021.4
20260906121330 15 21 0.0 0.0 0.00 0.00 0.00 65 1021.3
20260906120827 15 19 0.0 0.0 0.00 0.00 0.00 65 1021.3
20260906120322 15 17 0.0 0.0 0.00 0.00 0.00 64 1021.3
20260906115917 15 18 0.0 0.0 0.00 0.00 0.00 64 1021.4
20260906115835 15 18 0.0 0.0 0.00 0.00 0.00 64 1021.4
20260906115328 15 223 0.0 0.0 0.00 0.00 0.00 63 1021.3
20260906114825 16 220 0.0 0.0 0.00 0.00 0.00 62 1021.3
20260906114318 16 220 0.0 0.0 0.00 0.00 0.00 62 1021.4
20260906113851 16 223 0.0 0.0 0.00 0.00 0.00 62 1021.3
20260906113345 16 223 0.0 0.0 0.00 0.00 0.00 62 1021.4
20260906112914 16 225 0.0 0.0 0.00 0.00 0.00 62 1021.2
20260906112345 16 225 0.0 0.0 0.00 0.00 0.00 62 1021.1
20260906111903 16 25 0.0 0.0 0.00 0.00 0.00 62 1021.1
20260906111335 16 22 0.0 0.0 0.00 0.00 0.00 62 1021.0
20260906110829 16 28 0.0 0.0 0.00 0.00 0.00 62 1021.1
20260906110343 16 19 0.0 0.0 0.00 0.00 0.00 62 1021.1
20260906105937 16 17 0.0 0.0 0.00 0.00 0.00 62 1021.1
20260906105834 16 17 0.0 0.0 0.00 0.00 0.00 62 1021.1
20260906105349 15 17 0.0 0.0 0.00 0.00 0.00 63 1021.1
20260906104843 15 19 0.0 0.0 0.00 0.00 0.00 63 1021.0
20260906104321 16 15 0.0 0.0 0.00 0.00 0.00 62 1020.9
20260906103835 16 226 0.0 1.6 0.00 0.00 0.00 62 1020.9
20260906103430 16 18 0.0 1.6 0.00 0.00 0.00 62 1021.1
20260906103348 16 18 0.0 1.6 0.00 0.00 0.00 62 1021.1
20260906102923 16 13 0.0 4.8 0.00 0.00 0.00 62 1021.1
20260906102840 16 13 0.0 4.8 0.00 0.00 0.00 62 1021.1
20260906102354 16 12 1.6 4.8 0.00 0.00 0.00 62 1021.0
20260906101827 16 15 0.0 3.2 0.00 0.00 0.00 62 1020.9
20260906101320 16 15 0.0 3.2 0.00 0.00 0.00 62 1020.9
20260906100857 16 13 0.0 0.0 0.00 0.00 0.00 62 1020.9
20260906100350 16 11 0.0 0.0 0.00 0.00 0.00 62 1020.8
20260906095903 16 11 0.0 0.0 0.00 0.00 0.00 61 1020.9
20260906095436 16 11 0.0 0.0 0.00 0.00 0.00 61 1020.9
20260906095353 16 11 0.0 0.0 0.00 0.00 0.00 61 1020.9
20260906094828 16 11 0.0 1.6 0.00 0.00 0.00 60 1020.9
20260906094343 17 13 0.0 1.6 0.00 0.00 0.00 59 1020.9
20260906093914 17 14 0.0 0.0 0.00 0.00 0.00 58 1020.9
20260906093410 17 12 0.0 0.0 0.00 0.00 0.00 57 1020.9
20260906092821 17 17 0.0 0.0 0.00 0.00 0.00 56 1020.9
20260906092355 17 26 0.0 0.0 0.00 0.00 0.00 56 1020.9
20260906091828 17 38 0.0 0.0 0.00 0.00 0.00 55 1020.9
20260906091406 17 25 0.0 4.8 0.00 0.00 0.00 54 1020.8
20260906090901 17 14 0.0 4.8 0.00 0.00 0.00 54 1020.7
20260906090337 17 23 0.0 1.6 0.00 0.00 0.00 54 1020.7
20260906085853 18 24 0.0 1.6 0.00 0.00 0.00 55 1020.7
20260906085346 18 23 0.0 0.0 0.00 0.00 0.00 54 1020.7
20260906084820 18 18 0.0 0.0 0.00 0.00 0.00 53 1020.7
20260906084334 18 22 0.0 3.2 0.00 0.00 0.00 53 1020.7
20260906083849 18 15 1.6 3.2 0.00 0.00 0.00 52 1020.6
20260906083322 18 17 0.0 6.4 0.00 0.00 0.00 52 1020.7
20260906082837 18 19 3.2 6.4 0.00 0.00 0.00 52 1020.7
20260906082432 18 15 3.2 4.8 0.00 0.00 0.00 53 1020.8
20260906082328 18 15 3.2 4.8 0.00 0.00 0.00 53 1020.8
20260906081846 18 17 1.6 6.4 0.00 0.00 0.00 53 1020.8
20260906081339 18 15 1.6 6.4 0.00 0.00 0.00 52 1020.8
20260906080909 18 14 1.6 6.4 0.00 0.00 0.00 52 1020.9
20260906080827 18 14 1.6 6.4 0.00 0.00 0.00 52 1020.9
20260906080333 18 13 1.6 4.8 0.00 0.00 0.00 54 1020.9
20260906075848 17 11 3.2 4.8 0.00 0.00 0.00 54 1021.0
20260906075326 17 12 3.2 4.8 0.00 0.00 0.00 56 1021.0
20260906074820 17 11 1.6 4.8 0.00 0.00 0.00 56 1021.0
20260906074333 17 13 0.0 3.2 0.00 0.00 0.00 57 1021.0
20260906073926 18 11 0.0 0.0 0.00 0.00 0.00 57 1021.0
20260906073844 18 11 0.0 0.0 0.00 0.00 0.00 57 1021.0
20260906073417 18 11 0.0 0.0 0.00 0.00 0.00 56 1021.0
20260906073335 18 11 0.0 0.0 0.00 0.00 0.00 56 1021.0
20260906072828 18 13 0.0 3.2 0.00 0.00 0.00 54 1020.9
20260906072423 18 11 0.0 3.2 0.00 0.00 0.00 54 1021.0
20260906072320 18 11 0.0 3.2 0.00 0.00 0.00 54 1021.0
20260906071916 18 9 0.0 3.2 0.00 0.00 0.00 53 1020.9
20260906071407 19 9 0.0 1.6 0.00 0.00 0.00 52 1020.9
20260906070919 19 5 0.0 3.2 0.00 0.00 0.00 52 1020.9
20260906070837 19 5 0.0 3.2 0.00 0.00 0.00 52 1020.9
20260906070351 19 9 0.0 4.8 0.00 0.00 0.00 51 1020.8
20260906065904 20 9 1.6 4.8 0.00 0.00 0.00 51 1020.7
20260906065822 20 9 1.6 4.8 0.00 0.00 0.00 51 1020.7
20260906065317 20 5 1.6 4.8 0.00 0.00 0.00 50 1020.7
20260906064855 20 5 1.6 4.8 0.00 0.00 0.00 50 1020.8
20260906064406 20 5 1.6 6.4 0.00 0.00 0.00 49 1020.7
20260906063821 20 11 3.2 6.4 0.00 0.00 0.00 49 1020.8
20260906063336 20 11 3.2 6.4 0.00 0.00 0.00 49 1020.8
20260906062850 20 12 1.6 4.8 0.00 0.00 0.00 49 1020.8
20260906062420 20 9 1.6 4.8 0.00 0.00 0.00 49 1020.8
20260906062338 20 9 1.6 4.8 0.00 0.00 0.00 49 1020.8
20260906061831 21 9 1.6 8.0 0.00 0.00 0.00 49 1020.8
20260906061406 21 10 3.2 8.0 0.00 0.00 0.00 49 1020.9
20260906060901 21 15 0.0 3.2 0.00 0.00 0.00 47 1020.9
20260906060414 21 9 0.0 1.6 0.00 0.00 0.00 49 1020.9
20260906055824 21 11 0.0 3.2 0.00 0.00 0.00 48 1021.1
20260906055343 21 9 0.0 4.8 0.00 0.00 0.00 48 1021.1
20260906054855 22 10 1.6 4.8 0.00 0.00 0.00 48 1021.1
20260906054330 22 236 0.0 1.6 0.00 0.00 0.00 51 1021.0
20260906053845 22 234 0.0 3.2 0.00 0.00 0.00 50 1021.0
20260906053358 22 236 0.0 6.4 0.00 0.00 0.00 51 1021.1
20260906052830 22 342 1.6 6.4 0.00 0.00 0.00 55 1021.1
20260906052426 21 169 0.0 3.2 0.00 0.00 0.00 58 1021.0
20260906052322 21 169 0.0 3.2 0.00 0.00 0.00 58 1021.0
20260906051815 21 169 0.0 0.0 0.00 0.00 0.00 59 1021.0
20260906051332 21 167 0.0 1.6 0.00 0.00 0.00 59 1021.0
20260906050827 21 169 0.0 4.8 0.00 0.00 0.00 59 1021.1
20260906050321 21 169 1.6 4.8 0.00 0.00 0.00 59 1021.2
20260906045916 21 9 1.6 3.2 0.00 0.00 0.00 59 1021.1
20260906045347 21 9 0.0 0.0 0.00 0.00 0.00 59 1021.1
20260906044915 21 9 0.0 0.0 0.00 0.00 0.00 58 1021.2
20260906044832 21 9 0.0 0.0 0.00 0.00 0.00 58 1021.2
20260906044409 21 5 0.0 0.0 0.00 0.00 0.00 57 1021.3
20260906044327 21 5 0.0 0.0 0.00 0.00 0.00 57 1021.3
20260906043925 21 169 0.0 0.0 0.00 0.00 0.00 57 1021.2
20260906043822 21 169 0.0 0.0 0.00 0.00 0.00 57 1021.2
20260906043315 21 169 0.0 0.0 0.00 0.00 0.00 56 1021.2
20260906042850 21 167 0.0 1.6 0.00 0.00 0.00 55 1021.2
20260906042324 22 169 0.0 1.6 0.00 0.00 0.00 54 1021.3
20260906041818 22 167 0.0 1.6 0.00 0.00 0.00 54 1021.3
20260906041331 22 169 0.0 0.0 0.00 0.00 0.00 52 1021.2
20260906040911 22 169 0.0 0.0 0.00 0.00 0.00 51 1021.3
20260906040436 22 169 0.0 1.6 0.00 0.00 0.00 50 1021.3
20260906040332 22 169 0.0 1.6 0.00 0.00 0.00 50 1021.3
20260906035926 22 169 0.0 1.6 0.00 0.00 0.00 48 1021.2
20260906035322 23 150 0.0 3.2 0.00 0.00 0.00 48 1021.2
20260906034857 23 169 0.0 3.2 0.00 0.00 0.00 45 1021.3
20260906034426 23 166 0.0 3.2 0.00 0.00 0.00 42 1021.2
20260906033920 23 169 0.0 6.4 0.00 0.00 0.00 40 1021.2
20260906033837 23 169 0.0 6.4 0.00 0.00 0.00 40 1021.2
20260906033353 23 169 1.6 6.4 0.00 0.00 0.00 40 1021.2
20260906032927 23 161 0.0 11.3 0.00 0.00 0.00 43 1021.1
20260906032824 23 161 0.0 11.3 0.00 0.00 0.00 43 1021.1
20260906032317 23 213 3.2 12.9 0.00 0.00 0.00 38 1021.1
20260906031913 23 209 6.4 17.7 0.00 0.00 0.00 38 1021.1
20260906031404 23 196 8.0 17.7 0.00 0.00 0.00 37 1021.1
20260906030938 23 315 0.0 1.6 0.00 0.00 0.00 37 1020.5
20260906030856 23 315 0.0 1.6 0.00 0.00 0.00 37 1020.5
20260906030323 23 315 0.0 4.8 0.00 0.00 0.00 37 1020.2
20260906025919 23 315 0.0 9.7 0.00 0.00 0.00 38 1020.0
20260906025837 23 315 0.0 9.7 0.00 0.00 0.00 38 1020.0
20260906025413 23 314 1.6 9.7 0.00 0.00 0.00 37 1019.9
20260906025331 23 314 1.6 9.7 0.00 0.00 0.00 37 1019.9
20260906024927 23 214 0.0 0.0 0.00 0.00 0.00 38 1019.6
20260906024845 23 214 0.0 0.0 0.00 0.00 0.00 38 1019.6
20260906024357 23 215 0.0 0.0 0.00 0.00 0.00 36 1019.5
20260906023829 23 215 0.0 0.0 0.00 0.00 0.00 37 1019.4
20260906023344 23 210 0.0 0.0 0.00 0.00 0.00 38 1019.5
20260906022937 23 205 0.0 0.0 0.00 0.00 0.00 36 1019.5
20260906022430 24 215 0.0 0.0 0.00 0.00 0.00 34 1019.5
20260906022347 24 215 0.0 0.0 0.00 0.00 0.00 34 1019.5
20260906021821 24 209 0.0 1.6 0.00 0.00 0.00 35 1019.5
20260906021355 25 215 0.0 3.2 0.00 0.00 0.00 33 1019.5
20260906020905 25 207 1.6 3.2 0.00 0.00 0.00 31 1019.5
20260906020356 25 215 1.6 3.2 0.00 0.00 0.00 31 1019.4
20260906015829 25 184 0.0 0.0 0.00 0.00 0.00 31 1019.4
20260906015323 25 215 0.0 3.2 0.00 0.00 0.00 31 1019.3
20260906014858 25 215 0.0 3.2 0.00 0.00 0.00 31 1019.3
20260906014414 25 214 0.0 4.8 0.00 0.00 0.00 30 1019.3
20260906013846 26 19 1.6 4.8 0.00 0.00 0.00 30 1019.3
20260906013318 26 22 3.2 6.4 0.00 0.00 0.00 29 1019.3
20260906012831 26 22 3.2 6.4 0.00 0.00 0.00 29 1019.1
20260906012346 26 24 1.6 8.0 0.00 0.00 0.00 29 1019.1
20260906011818 26 30 4.8 16.1 0.00 0.00 0.00 29 1019.1
20260906011432 27 22 8.0 16.1 0.00 0.00 0.00 28 1019.2
20260906010823 27 15 3.2 8.0 0.00 0.00 0.00 28 1019.2
20260906010438 27 11 1.6 9.7 0.00 0.00 0.00 28 1019.1
20260906010355 27 11 1.6 9.7 0.00 0.00 0.00 28 1019.1
20260906005929 27 11 4.8 9.7 0.00 0.00 0.00 27 1019.2
20260906005826 27 11 4.8 9.7 0.00 0.00 0.00 27 1019.2
20260906005341 27 204 4.8 9.7 0.00 0.00 0.00 26 1019.3
20260906004911 27 208 3.2 9.7 0.00 0.00 0.00 26 1019.3
20260906004828 27 208 3.2 9.7 0.00 0.00 0.00 26 1019.3
20260906004321 28 211 3.2 9.7 0.00 0.00 0.00 26 1019.3
20260906003856 28 209 3.2 9.7 0.00 0.00 0.00 27 1019.3
20260906003349 28 190 3.2 11.3 0.00 0.00 0.00 26 1019.3
20260906002839 28 192 4.8 14.5 0.00 0.00 0.00 26 1019.3
20260906002336 28 14 8.0 14.5 0.00 0.00 0.00 26 1019.2
20260906001850 28 10 6.4 12.9 0.00 0.00 0.00 27 1019.2
20260906001424 28 11 8.0 12.9 0.00 0.00 0.00 26 1019.3
20260906001321 28 11 8.0 12.9 0.00 0.00 0.00 26 1019.3
20260906000900 28 11 6.4 12.9 0.00 0.00 0.00 26 1019.3
20260906000316 28 11 6.4 11.3 0.00 0.00 0.00 26 1019.2
20260905235852 28 17 4.8 16.1 0.00 0.00 0.00 27 1019.2
20260905235426 28 17 8.0 16.1 0.00 0.00 0.00 26 1019.1
20260905235322 28 17 8.0 16.1 0.00 0.00 0.00 26 1019.1
20260905234918 28 19 6.4 16.1 0.00 0.00 0.00 26 1019.1
20260905234331 28 192 8.0 16.1 0.00 0.00 0.00 26 1019.1
20260905233849 29 192 9.7 20.9 0.00 0.00 0.00 26 1019.1
20260905233439 29 182 11.3 20.9 0.00 0.00 0.00 26 1019.0
20260905232850 29 211 6.4 17.7 0.00 0.00 0.00 27 1018.9
20260905232344 29 190 4.8 9.7 0.00 0.00 0.00 26 1018.9
20260905231859 29 22 3.2 9.7 0.00 0.00 0.00 25 1019.0
20260905231350 29 18 4.8 9.7 0.00 0.00 0.00 26 1019.0
20260905230904 29 17 1.6 8.0 0.00 0.00 0.00 25 1019.0
20260905230822 29 17 1.6 8.0 0.00 0.00 0.00 25 1019.0
20260905230416 29 10 0.0 6.4 0.00 0.00 0.00 26 1019.0
20260905230334 29 10 0.0 6.4 0.00 0.00 0.00 26 1019.0
20260905225829 29 11 1.6 9.7 0.00 0.00 0.00 25 1018.9
20260905225403 29 12 1.6 9.7 0.00 0.00 0.00 26 1018.9
20260905225321 29 12 1.6 9.7 0.00 0.00 0.00 26 1018.9
20260905224836 29 13 1.6 8.0 0.00 0.00 0.00 25 1018.9
20260905224409 30 103 1.6 9.7 0.00 0.00 0.00 25 1018.9
20260905223858 30 105 3.2 9.7 0.00 0.00 0.00 24 1019.0
20260905223816 30 105 3.2 9.7 0.00 0.00 0.00 24 1019.0
20260905223353 30 82 1.6 11.3 0.00 0.00 0.00 24 1019.0
20260905222848 30 108 4.8 11.3 0.00 0.00 0.00 23 1019.1
20260905222321 31 115 1.6 11.3 0.00 0.00 0.00 24 1019.0
20260905221917 31 27 3.2 11.3 0.00 0.00 0.00 24 1019.1
20260905221835 31 27 3.2 11.3 0.00 0.00 0.00 24 1019.1